Location: Краснодар
(45.0393°N, 38.9872°E)
Time: 21:40:07
(UTC+03:00)

ISS - Visible Passes

Search period start: 16 July 2018 00:00
Search period end: 26 July 2018 00:00
Orbit: 402 x 408 km, 51.6° (Epoch: 17 July)

Date Brightness Start Highest point End Pass type
(mag) Time Alt. Az. Time Alt. Az. Time Alt. Az.
16 Jul -2.2 00:26:40 31° NE 00:26:40 31° NE 00:28:36 10° NE visible
16 Jul -1.6 01:59:26 10° WNW 02:02:16 26° N 02:05:06 10° NE visible
16 Jul -1.9 03:36:23 10° NW 03:39:24 32° NNE 03:42:24 10° E visible
16 Jul -1.2 23:35:58 14° ENE 23:35:58 14° ENE 23:36:33 10° ENE visible
17 Jul -1.8 01:08:35 21° NW 01:10:01 29° NNW 01:12:58 10° NE visible
17 Jul -1.6 02:44:16 10° NW 02:47:09 27° N 02:50:01 10° ENE visible
18 Jul -2.3 00:17:36 36° NNW 00:17:46 36° NNW 00:20:52 10° NE visible
18 Jul -1.4 01:52:03 10° NW 01:54:51 25° N 01:57:40 10° ENE visible
18 Jul -2.7 03:28:39 10° NW 03:31:52 48° NNE 03:35:04 10° E visible
18 Jul-0.621:53:17ENE21:53:17ENE21:44:13SSWvisible
18 Jul -3.0 23:25:44 50° N 23:25:44 50° N 23:28:48 10° NE visible
19 Jul -1.5 00:59:45 10° WNW 01:02:33 25° N 01:05:22 10° NE visible
19 Jul -2.1 02:36:35 10° NW 02:39:39 35° NNE 02:42:43 10° E visible
19 Jul -3.7 04:13:02 10° WNW 04:16:16 53° SW 04:19:29 10° SE visible
19 Jul -2.2 20:55:15 10° S 20:57:18 16° SE 20:59:22 10° E visible
19 Jul -3.8 22:30:08 10° WSW 22:33:25 80° NNW 22:36:43 10° ENE visible
20 Jul -1.6 00:07:22 10° WNW 00:10:15 27° N 00:13:09 10° NE visible
20 Jul -1.7 01:44:28 10° NW 01:47:23 28° N 01:50:18 10° ENE visible
20 Jul -3.9 03:20:52 10° WNW 03:24:11 88° NE 03:27:29 10° ESE visible
20 Jul -3.9 21:38:05 10° SW 21:41:19 60° SE 21:44:34 10° ENE visible
20 Jul -2.0 23:14:57 10° W 23:17:58 33° NNW 23:21:00 10° NE visible
21 Jul -1.5 00:52:15 10° NW 00:55:04 25° N 00:57:53 10° ENE visible
21 Jul -3.1 02:28:46 10° NW 02:32:02 55° NNE 02:35:16 10° ESE visible
21 Jul -2.7 04:05:35 10° W 04:08:20 24° SW 04:11:03 10° SSE visible
21 Jul -3.1 20:46:17 10° SSW 20:49:16 33° SE 20:52:17 10° ENE visible
21 Jul -2.6 22:22:33 10° W 22:25:42 44° NNW 22:28:53 10° NE visible
21 Jul -1.4 23:59:57 10° WNW 00:02:44 25° N 00:05:31 10° ENE visible
22 Jul -2.4 01:36:40 10° NW 01:39:47 38° NNE 01:42:55 10° E visible
22 Jul -3.5 03:13:10 10° WNW 03:16:19 43° SW 03:19:28 10° SE visible
22 Jul -3.5 21:30:14 10° WSW 21:33:30 67° NNW 21:36:46 10° ENE visible
22 Jul -1.5 23:07:32 10° WNW 23:10:23 26° N 23:13:14 10° NE visible
23 Jul -1.9 00:44:31 10° NW 00:47:30 30° NNE 00:48:16 27° NE visible
23 Jul -3.9 20:38:05 10° SW 20:41:20 74° SSE 20:44:36 10° ENE visible
23 Jul -1.8 22:15:05 10° WNW 22:18:03 30° NNW 22:21:01 10° NE visible
23 Jul -1.6 23:52:19 10° NW 23:55:10 26° N 23:56:26 20° NE visible
24 Jul -1.0 01:28:47 10° WNW 01:29:01 12° NW 01:29:01 12° NW visible
24 Jul -2.3 21:22:37 10° W 21:25:44 39° NNW 21:28:51 10° NE visible
24 Jul -1.5 23:00:01 10° WNW 23:02:48 25° N 23:05:23 11° ENE visible
25 Jul -1.5 00:36:38 10° NW 00:38:00 21° NW 00:38:00 21° NW visible
25 Jul -3.1 20:30:13 10° WSW 20:33:28 57° NNW 20:36:43 10° NE visible
25 Jul -1.5 22:07:36 10° WNW 22:10:24 25° N 22:13:13 10° NE visible
25 Jul -2.0 23:44:29 10° NW 23:47:11 32° N 23:47:11 32° N visible
